Flag for U.S.A. Weather past 2 weeks in Wilmington, Delaware, U.S.A.

Now
29 °F

Sunny.


Feels Like: 17 °F
Forecast: 13 / 23 °F
Wind: 16 mph from Northwest

Location: New Castle County Airport

Current Time: Feb 27, 2015 at 5:13:51 PM

Latest Report: Feb 27, 2015 at 3:51 PM


Visibility: 10 mi

Pressure: 30.47 "Hg

Humidity: 47%

Dew point: 11 °F

Location of WilmingtonLocation

Historic Weather in Wilmington — Graph

°F

Wilmington temperature yesterday

Maximum temperature yesterday: 32 °F (at 11:51 AM)
Minimum temperature yesterday: 25 °F (at 7:58 AM)
Average temperature yesterday: 29 °F

Past Weeks' High & Low Weather Summary

 TemperatureHumidityPressure
High43 °F (Feb 22, 3:51 PM)100% (Feb 22, 3:51 AM)30.53 "Hg (Feb 22, 3:51 AM)
Low2 °F (Feb 16, 4:51 AM)30% (Feb 13, 11:51 AM)29.50 "Hg (Feb 14, 7:58 PM)
Average21 °F57%30.10 "Hg
* Reported Feb 12 2:51 PM — Feb 27 2:51 PM, Wilmington, Weather by CustomWeather, © 2015

Note: Actual official high and low records may vary slightly from our data, if they occured in-between our weather recording intervals... More about our weather records

Advertising

Wilmington weather history for previous 24 hours

 ConditionsComfort  
Time TempWeatherWind HumidityBarometerVisibility
2:51 PM
Fri, Feb 27
28 °FSunny.14 mph51%30.45 "Hg10 mi
1:51 PM28 °FSunny.17 mph51%30.43 "Hg10 mi
12:51 PM29 °FSunny.9 mph47%30.43 "Hg10 mi
11:51 AM27 °FScattered clouds.6 mph55%30.44 "Hg10 mi
10:51 AM25 °FOvercast.6 mph60%30.43 "Hg10 mi
9:51 AM24 °FCloudy.9 mph71%30.41 "Hg10 mi
8:51 AM23 °FOvercast.12 mph68%30.40 "Hg6 mi
7:51 AM23 °FOvercast.12 mph78%30.37 "Hg5 mi
6:51 AM23 °FLight snow. Overcast.10 mph81%30.33 "Hg1 mi
5:51 AM24 °FLight snow. Overcast.9 mph81%30.30 "Hg3 mi
4:51 AM26 °FOvercast.7 mph74%30.26 "Hg10 mi
3:51 AM27 °FMostly cloudy.5 mph78%30.23 "Hg10 mi
2:51 AM28 °FOvercast.No wind69%30.21 "Hg10 mi
1:51 AM28 °FOvercast.No wind75%30.19 "Hg10 mi
12:51 AM27 °FOvercast.3 mph75%30.18 "Hg10 mi
11:51 PM
Thu, Feb 26
28 °FOvercast.No wind66%30.15 "Hg10 mi
10:51 PM27 °FOvercast.3 mph69%30.14 "Hg10 mi
9:51 PM28 °FClear.No wind64%30.14 "Hg10 mi
8:51 PM27 °FPassing clouds.3 mph66%30.12 "Hg10 mi
7:51 PM28 °FPassing clouds.3 mph64%30.10 "Hg10 mi
6:51 PM28 °FPassing clouds.7 mph66%30.07 "Hg10 mi
5:51 PM31 °FOvercast.9 mph59%30.04 "Hg10 mi
Weather by CustomWeather, © 2015

See weather overviewHow to use our weather pages